This demonstration page uses our WeatherBlox Daily Observations layout. Learn more.

36.17497, -115.13722

Hourly Observations for February 26, 2020

Temp ( °F °C ) Dew Point ( °F °C ) Humidity (%) Winds ( mph kmh ) Pressure ( in mb ) Visibility ( mi km ) Precip ( " mm )
12:53 am 00:53 Clear 47 8.3 19 -7.2 33 33 S 6 9 30.54 1034 10 16.0934 0 0
1:53 am 01:53 Clear 46 7.8 19 -7.2 34 34 S 6 9 30.54 1034 10 16.0934 0 0
2:53 am 02:53 Clear 43 6.1 20 -6.7 40 40 SW 3 6 30.54 1034 10 16.0934 0 0
3:53 am 03:53 Clear 42 5.6 20 -6.7 41 41 Calm 30.54 1034 10 16.0934 0 0
4:53 am 04:53 Clear 43 6.1 19 -7.2 38 38 Calm 30.55 1035 10 16.0934 0 0
5:53 am 05:53 Clear 39 3.9 21 -6.1 48 48 W 5 7 30.55 1035 10 16.0934 0 0
6:53 am 06:53 Sunny 42 5.6 20 -6.7 41 41 NW 3 6 30.56 1035 10 16.0934 0 0
7:53 am 07:53 Sunny 47 8.3 22 -5.6 37 37 Calm 30.57 1035 10 16.0934 0 0
8:53 am 08:53 Sunny 50 10 20 -6.7 30 30 S 3 6 30.57 1035 10 16.0934 0 0
9:53 am 09:53 Sunny 52 11.1 17 -8.3 25 25 SSE 3 6 30.56 1035 10 16.0934 0 0
10:53 am 10:53 Sunny 54 12.2 18 -7.8 24 24 Calm 30.54 1034 10 16.0934 0 0
11:53 am 11:53 Sunny 57 13.9 18 -7.8 22 22 SE 3 6 30.5 1033 10 16.0934 0 0
12:53 pm 12:53 Sunny 59 15 17 -8.3 19 19 Calm 30.46 1032 10 16.0934 0 0
1:53 pm 13:53 Sunny 61 16.1 15 -9.4 17 17 Calm 30.43 1030 10 16.0934 0 0
2:53 pm 14:53 Sunny 62 16.7 15 -9.4 16 16 Calm 30.41 1030 10 16.0934 0 0
3:53 pm 15:53 Sunny 62 16.7 14 -10 15 15 SE 6 9 30.38 1029 10 16.0934 0 0
4:53 pm 16:53 Sunny 62 16.7 17 -8.3 17 17 Calm 30.37 1029 10 16.0934 0 0
5:53 pm 17:53 Clear 59 15 17 -8.3 19 19 E 3 6 30.38 1029 10 16.0934 0 0
6:53 pm 18:53 Clear 58 14.4 16 -8.9 19 19 Calm 30.38 1029 10 16.0934 0 0
7:53 pm 19:53 Clear 55 12.8 19 -7.2 24 24 W 3 6 30.37 1029 10 16.0934 0 0
8:53 pm 20:53 Clear 52 11.1 22 -5.6 31 31 NW 5 7 30.39 1029 10 16.0934 0 0
9:53 pm 21:53 Clear 50 10 22 -5.6 33 33 WNW 3 6 30.4 1029 10 16.0934 0 0
10:53 pm 22:53 Clear 48 8.9 23 -5 37 37 W 5 7 30.4 1029 10 16.0934 0 0
11:53 pm 23:53 Clear 47 8.3 23 -5 39 39 W 6 9 30.38 1029 10 16.0934 0 0

Powered by AerisWeather